Time,TemperatureF,DewpointF,PressureIn,WindDirection,WindDirectionDegrees,WindSpeedMPH,WindSpeedGustMPH,Humidity,HourlyPrecipIn,Conditions,Clouds,dailyrainin,SoftwareType,DateUTC
2013-01-12 00:12:00,70.8,71.0,29.94,SE,131,5.0,11.0,99,0.00,,,0.00,weatherlink.com 1.10,2013-01-12 06:12:00,
2013-01-12 00:27:00,70.9,71.0,29.94,South,169,5.0,12.0,99,0.00,,,0.00,weatherlink.com 1.10,2013-01-12 06:27:00,
2013-01-12 00:42:00,70.9,70.0,29.94,South,184,7.0,11.0,98,0.00,,,0.00,weatherlink.com 1.10,2013-01-12 06:42:00,
2013-01-12 00:57:00,71.0,70.0,29.94,SSE,168,6.0,14.0,98,0.00,,,0.00,weatherlink.com 1.10,2013-01-12 06:57:00,
2013-01-12 01:12:00,70.8,70.0,29.95,SSE,165,9.0,10.0,98,0.00,,,0.00,weatherlink.com 1.10,2013-01-12 07:12:00,
2013-01-12 01:27:00,70.6,70.0,29.95,South,182,3.0,9.0,98,0.00,,,0.00,weatherlink.com 1.10,2013-01-12 07:27:00,
2013-01-12 01:42:00,70.4,70.0,29.95,South,182,2.0,8.0,98,0.00,,,0.00,weatherlink.com 1.10,2013-01-12 07:42:00,
2013-01-12 01:57:00,70.3,70.0,29.95,SSE,159,4.0,7.0,98,0.00,,,0.00,weatherlink.com 1.10,2013-01-12 07:57:00,
2013-01-12 02:12:00,70.2,70.0,29.95,South,182,4.0,8.0,98,0.00,,,0.00,weatherlink.com 1.10,2013-01-12 08:12:00,
2013-01-12 02:27:00,70.0,70.0,29.95,South,175,2.0,8.0,99,0.00,,,0.00,weatherlink.com 1.10,2013-01-12 08:27:00,
2013-01-12 02:42:00,69.9,70.0,29.95,SSE,168,4.0,6.0,99,0.00,,,0.00,weatherlink.com 1.10,2013-01-12 08:42:00,
2013-01-12 02:57:00,69.8,70.0,29.94,SSE,158,3.0,6.0,99,0.00,,,0.00,weatherlink.com 1.10,2013-01-12 08:57:00,
2013-01-12 03:12:00,69.8,70.0,29.94,SE,132,6.0,6.0,99,0.00,,,0.00,weatherlink.com 1.10,2013-01-12 09:12:00,
2013-01-12 03:27:00,69.9,70.0,29.93,SE,134,3.0,8.0,99,0.00,,,0.00,weatherlink.com 1.10,2013-01-12 09:27:00,
2013-01-12 03:42:00,69.8,70.0,29.93,South,169,3.0,8.0,99,0.00,,,0.00,weatherlink.com 1.10,2013-01-12 09:42:00,
2013-01-12 03:57:00,69.8,69.0,29.93,South,175,4.0,7.0,98,0.00,,,0.00,weatherlink.com 1.10,2013-01-12 09:57:00,
2013-01-12 04:12:00,69.8,69.0,29.92,SSE,165,2.0,5.0,98,0.00,,,0.00,weatherlink.com 1.10,2013-01-12 10:12:00,
2013-01-12 04:27:00,69.9,70.0,29.92,SSE,158,3.0,6.0,99,0.00,,,0.00,weatherlink.com 1.10,2013-01-12 10:27:00,
2013-01-12 04:42:00,69.9,70.0,29.93,South,178,5.0,7.0,99,0.00,,,0.00,weatherlink.com 1.10,2013-01-12 10:42:00,
2013-01-12 04:57:00,69.8,70.0,29.93,SSE,168,6.0,8.0,99,0.00,,,0.00,weatherlink.com 1.10,2013-01-12 10:57:00,
2013-01-12 05:12:00,69.8,70.0,29.93,SSE,162,4.0,8.0,99,0.00,,,0.00,weatherlink.com 1.10,2013-01-12 11:12:00,
2013-01-12 05:27:00,69.8,70.0,29.93,SE,146,3.0,10.0,99,0.00,,,0.00,weatherlink.com 1.10,2013-01-12 11:27:00,
2013-01-12 05:42:00,70.0,70.0,29.93,South,182,4.0,8.0,99,0.00,,,0.00,weatherlink.com 1.10,2013-01-12 11:42:00,
2013-01-12 05:57:00,70.1,70.0,29.94,SE,145,4.0,7.0,98,0.00,,,0.00,weatherlink.com 1.10,2013-01-12 11:57:00,
2013-01-12 06:12:00,70.1,70.0,29.95,South,173,5.0,7.0,98,0.00,,,0.00,weatherlink.com 1.10,2013-01-12 12:12:00,
2013-01-12 06:27:00,70.3,70.0,29.95,SSE,154,2.0,8.0,98,0.00,,,0.00,weatherlink.com 1.10,2013-01-12 12:27:00,
2013-01-12 06:42:00,70.3,70.0,29.95,ESE,105,8.0,9.0,98,0.00,,,0.00,weatherlink.com 1.10,2013-01-12 12:42:00,
2013-01-12 06:57:00,70.5,70.0,29.95,SE,144,4.0,9.0,98,0.00,,,0.00,weatherlink.com 1.10,2013-01-12 12:57:00,
2013-01-12 07:12:00,70.6,70.0,29.95,ESE,121,8.0,10.0,97,0.00,,,0.00,weatherlink.com 1.10,2013-01-12 13:12:00,
2013-01-12 07:27:00,70.5,70.0,29.95,South,173,5.0,9.0,97,0.00,,,0.00,weatherlink.com 1.10,2013-01-12 13:27:00,
2013-01-12 07:42:00,70.6,70.0,29.95,SSE,167,4.0,10.0,97,0.00,,,0.00,weatherlink.com 1.10,2013-01-12 13:42:00,
2013-01-12 07:57:00,70.7,70.0,29.95,South,181,9.0,14.0,97,0.00,,,0.00,weatherlink.com 1.10,2013-01-12 13:57:00,
2013-01-12 08:12:00,70.9,70.0,29.95,South,187,4.0,11.0,97,0.00,,,0.00,weatherlink.com 1.10,2013-01-12 14:12:00,
2013-01-12 08:27:00,71.1,70.0,29.96,South,186,5.0,10.0,97,0.00,,,0.00,weatherlink.com 1.10,2013-01-12 14:27:00,
2013-01-12 08:42:00,71.4,70.0,29.97,SE,132,3.0,10.0,96,0.00,,,0.00,weatherlink.com 1.10,2013-01-12 14:42:00,
2013-01-12 08:57:00,71.7,71.0,29.98,South,173,4.0,10.0,96,0.00,,,0.00,weatherlink.com 1.10,2013-01-12 14:57:00,
2013-01-12 09:12:00,71.8,71.0,29.98,South,184,6.0,13.0,96,0.00,,,0.00,weatherlink.com 1.10,2013-01-12 15:12:00,
2013-01-12 09:28:00,72.3,71.0,29.98,ESE,120,4.0,11.0,95,0.00,,,0.00,weatherlink.com 1.10,2013-01-12 15:28:00,
2013-01-12 09:43:00,72.4,71.0,29.97,South,169,10.0,14.0,94,0.00,,,0.00,weatherlink.com 1.10,2013-01-12 15:43:00,
2013-01-12 09:58:00,72.4,71.0,29.97,SSE,148,4.0,17.0,94,0.00,,,0.00,weatherlink.com 1.10,2013-01-12 15:58:00,
2013-01-12 10:13:00,72.4,71.0,29.96,SSW,199,6.0,13.0,94,0.00,,,0.00,weatherlink.com 1.10,2013-01-12 16:13:00,
2013-01-12 10:28:00,72.2,71.0,29.96,South,185,9.0,14.0,95,0.00,,,0.00,weatherlink.com 1.10,2013-01-12 16:28:00,
2013-01-12 10:43:00,72.2,71.0,29.96,South,174,11.0,12.0,95,0.00,,,0.00,weatherlink.com 1.10,2013-01-12 16:43:00,
2013-01-12 10:58:00,73.0,71.0,29.96,SSE,164,5.0,13.0,94,0.00,,,0.00,weatherlink.com 1.10,2013-01-12 16:58:00,
2013-01-12 11:13:00,73.6,72.0,29.95,South,185,11.0,16.0,93,0.00,,,0.00,weatherlink.com 1.10,2013-01-12 17:13:00,
2013-01-12 11:28:00,73.5,71.0,29.93,South,172,13.0,17.0,93,0.00,,,0.00,weatherlink.com 1.10,2013-01-12 17:28:00,
2013-01-12 11:43:00,73.4,71.0,29.93,South,184,10.0,16.0,92,0.00,,,0.00,weatherlink.com 1.10,2013-01-12 17:43:00,
2013-01-12 11:58:00,73.8,71.0,29.91,South,184,12.0,16.0,91,0.00,,,0.00,weatherlink.com 1.10,2013-01-12 17:58:00,
2013-01-12 12:13:00,73.8,71.0,29.90,South,189,9.0,20.0,91,0.00,,,0.00,weatherlink.com 1.10,2013-01-12 18:13:00,
2013-01-12 12:28:00,74.1,71.0,29.89,SSE,164,7.0,17.0,90,0.00,,,0.00,weatherlink.com 1.10,2013-01-12 18:28:00,
2013-01-12 12:43:00,74.4,71.0,29.89,SE,142,10.0,20.0,89,0.00,,,0.00,weatherlink.com 1.10,2013-01-12 18:43:00,
2013-01-12 12:58:00,74.3,71.0,29.89,SSE,163,9.0,18.0,89,0.00,,,0.00,weatherlink.com 1.10,2013-01-12 18:58:00,
2013-01-12 13:13:00,73.8,71.0,29.89,SE,136,9.0,15.0,90,0.00,,,0.00,weatherlink.com 1.10,2013-01-12 19:13:00,
2013-01-12 13:28:00,73.9,71.0,29.89,SE,139,12.0,17.0,90,0.00,,,0.00,weatherlink.com 1.10,2013-01-12 19:28:00,
2013-01-12 13:43:00,74.0,71.0,29.87,South,172,10.0,18.0,89,0.00,,,0.00,weatherlink.com 1.10,2013-01-12 19:43:00,
2013-01-12 13:58:00,73.9,71.0,29.87,SSE,162,5.0,17.0,90,0.00,,,0.00,weatherlink.com 1.10,2013-01-12 19:58:00,
2013-01-12 14:13:00,74.0,71.0,29.87,South,176,6.0,16.0,89,0.00,,,0.00,weatherlink.com 1.10,2013-01-12 20:13:00,
2013-01-12 14:28:00,74.0,71.0,29.87,SSE,151,9.0,17.0,89,0.00,,,0.00,weatherlink.com 1.10,2013-01-12 20:28:00,
2013-01-12 14:43:00,73.9,71.0,29.87,SSE,158,13.0,17.0,89,0.00,,,0.00,weatherlink.com 1.10,2013-01-12 20:43:00,
2013-01-12 14:58:00,73.8,70.0,29.87,South,178,10.0,16.0,89,0.00,,,0.00,weatherlink.com 1.10,2013-01-12 20:58:00,
2013-01-12 15:13:00,73.5,71.0,29.86,SW,217,9.0,15.0,90,0.00,,,0.00,weatherlink.com 1.10,2013-01-12 21:13:00,
2013-01-12 15:28:00,73.7,71.0,29.86,South,179,6.0,14.0,90,0.00,,,0.00,weatherlink.com 1.10,2013-01-12 21:28:00,
2013-01-12 15:43:00,73.8,71.0,29.86,SE,134,5.0,17.0,90,0.00,,,0.00,weatherlink.com 1.10,2013-01-12 21:43:00,
2013-01-12 15:58:00,73.4,71.0,29.86,SSE,158,7.0,16.0,91,0.00,,,0.00,weatherlink.com 1.10,2013-01-12 21:58:00,
2013-01-12 16:13:00,73.1,70.0,29.86,South,176,5.0,14.0,91,0.00,,,0.00,weatherlink.com 1.10,2013-01-12 22:13:00,
2013-01-12 16:28:00,73.1,71.0,29.86,South,187,8.0,17.0,92,0.00,,,0.00,weatherlink.com 1.10,2013-01-12 22:28:00,
2013-01-12 16:43:00,72.9,71.0,29.85,SE,135,6.0,17.0,92,0.00,,,0.00,weatherlink.com 1.10,2013-01-12 22:43:00,
2013-01-12 16:58:00,72.8,71.0,29.85,SE,128,5.0,14.0,93,0.00,,,0.00,weatherlink.com 1.10,2013-01-12 22:58:00,
2013-01-12 17:13:00,72.8,71.0,29.85,South,190,12.0,16.0,93,0.00,,,0.00,weatherlink.com 1.10,2013-01-12 23:13:00,
2013-01-12 17:28:00,72.7,71.0,29.85,SSE,158,7.0,16.0,93,0.00,,,0.00,weatherlink.com 1.10,2013-01-12 23:28:00,
2013-01-12 17:43:00,72.5,70.0,29.84,South,187,9.0,13.0,93,0.00,,,0.00,weatherlink.com 1.10,2013-01-12 23:43:00,
2013-01-12 17:58:00,72.5,70.0,29.85,South,177,12.0,17.0,93,0.00,,,0.00,weatherlink.com 1.10,2013-01-12 23:58:00,
2013-01-12 18:13:00,72.6,71.0,29.85,South,169,5.0,19.0,93,0.00,,,0.00,weatherlink.com 1.10,2013-01-13 00:13:00,
2013-01-12 18:28:00,72.4,71.0,29.85,ESE,113,19.0,19.0,94,0.00,,,0.00,weatherlink.com 1.10,2013-01-13 00:28:00,
2013-01-12 18:43:00,72.3,71.0,29.85,SSW,193,7.0,15.0,94,0.00,,,0.00,weatherlink.com 1.10,2013-01-13 00:43:00,
2013-01-12 18:58:00,72.2,70.0,29.85,South,174,12.0,16.0,94,0.00,,,0.00,weatherlink.com 1.10,2013-01-13 00:58:00,
2013-01-12 19:13:00,72.2,70.0,29.85,South,173,7.0,15.0,94,0.00,,,0.00,weatherlink.com 1.10,2013-01-13 01:13:00,
2013-01-12 19:28:00,72.2,70.0,29.84,South,175,5.0,17.0,94,0.00,,,0.00,weatherlink.com 1.10,2013-01-13 01:28:00,
2013-01-12 19:43:00,72.1,70.0,29.85,South,180,8.0,16.0,94,0.00,,,0.00,weatherlink.com 1.10,2013-01-13 01:43:00,
2013-01-12 19:58:00,71.9,71.0,29.85,South,171,12.0,14.0,95,0.00,,,0.00,weatherlink.com 1.10,2013-01-13 01:58:00,
2013-01-12 20:13:00,71.9,70.0,29.84,South,177,8.0,13.0,94,0.00,,,0.00,weatherlink.com 1.10,2013-01-13 02:13:00,
2013-01-12 20:28:00,72.0,70.0,29.85,SSE,147,11.0,16.0,94,0.00,,,0.00,weatherlink.com 1.10,2013-01-13 02:28:00,
2013-01-12 20:43:00,71.7,70.0,29.84,South,184,9.0,13.0,95,0.00,,,0.00,weatherlink.com 1.10,2013-01-13 02:43:00,
2013-01-12 20:58:00,71.7,70.0,29.83,South,182,7.0,13.0,95,0.00,,,0.00,weatherlink.com 1.10,2013-01-13 02:58:00,
2013-01-12 21:13:00,71.7,70.0,29.83,ESE,103,10.0,16.0,95,0.00,,,0.00,weatherlink.com 1.10,2013-01-13 03:13:00,
2013-01-12 21:28:00,71.8,70.0,29.83,SE,141,11.0,18.0,95,0.00,,,0.00,weatherlink.com 1.10,2013-01-13 03:28:00,
2013-01-12 21:43:00,71.8,70.0,29.84,South,188,13.0,18.0,95,0.00,,,0.00,weatherlink.com 1.10,2013-01-13 03:43:00,
2013-01-12 21:58:00,71.7,70.0,29.84,South,169,8.0,15.0,95,0.00,,,0.00,weatherlink.com 1.10,2013-01-13 03:58:00,
2013-01-12 22:13:00,71.6,70.0,29.84,South,169,8.0,18.0,96,0.00,,,0.00,weatherlink.com 1.10,2013-01-13 04:13:00,
2013-01-12 22:28:00,71.3,70.0,29.84,ESE,119,10.0,15.0,96,0.00,,,0.00,weatherlink.com 1.10,2013-01-13 04:28:00,
2013-01-12 22:43:00,71.2,70.0,29.85,SSW,192,13.0,15.0,96,0.00,,,0.00,weatherlink.com 1.10,2013-01-13 04:43:00,
2013-01-12 22:58:00,71.1,70.0,29.85,South,191,4.0,12.0,96,0.00,,,0.00,weatherlink.com 1.10,2013-01-13 04:58:00,
2013-01-12 23:13:00,71.0,70.0,29.84,South,186,8.0,14.0,96,0.00,,,0.00,weatherlink.com 1.10,2013-01-13 05:13:00,
2013-01-12 23:28:00,71.1,70.0,29.84,South,180,11.0,15.0,96,0.00,,,0.00,weatherlink.com 1.10,2013-01-13 05:28:00,
2013-01-12 23:43:00,71.1,70.0,29.84,SSE,167,8.0,14.0,96,0.00,,,0.00,weatherlink.com 1.10,2013-01-13 05:43:00,
2013-01-12 23:59:00,71.1,70.0,29.84,SE,144,4.0,15.0,96,0.00,,,0.00,weatherlink.com 1.10,2013-01-13 05:59:00,